Regional Weather Roundup
Issued by NWS

Home | Current Version | Previous Version | Text Only | Print | Product List | Glossary Off
Versions: 1 2 3 4 5 6 7 8 9 10 11 12 13 14 15 16 17 18 19 20 21 22 23 24 25 26 27 28 29 30 31 32 33 34 35 36 37 38 39 40 41 42 43 44 45 46 47 48 49 50

000
ASUS43 KLMK 021410
RWRKY
KENTUCKY REGIONAL WEATHER ROUNDUP
NATIONAL WEATHER SERVICE LOUISVILLE KY
1000 AM EDT THU OCT 02 2014

NOTE "FAIR" INDICATES FEW OR NO CLOUDS BELOW 12,000 FEET
WITH NO SIGNIFICANT WEATHER AND/OR OBSTRUCTIONS TO VISIBILITY.

KYZ001>023-026-027-061>063-070>075-021500-
WESTERN AND SOUTH CENTRAL KENTUCKY

CITY           SKY/WX    TMP DP  RH WIND       PRES   REMARKS
PADUCAH        SUNNY     75  65  70 S8        29.95R
HENDERSON      NOT AVBL
OWENSBORO      MOSUNNY   73  60  63 S13       29.98S
HOPKINSVILLE   MOSUNNY   71  63  74 S6        30.01S
BOWLING GREEN  CLOUDY    73  61  65 S8        30.04S
GLASGOW        SUNNY     72  59  64 S6        30.05S
$$

KYZ024-025-028>034-038-045-046-053-021500-
NORTH CENTRAL KENTUCKY

CITY           SKY/WX    TMP DP  RH WIND       PRES   REMARKS
LOUISVILLE/SDF PTSUNNY   71  59  65 SE8       30.02S
LOUISVILLE/LOU SUNNY     71  59  65 S6        30.03S
FORT KNOX      SUNNY     71  60  69 S9        30.02S
$$

KYZ035>037-039>044-047>052-055>060-089>105-021500-
NORTHEAST KENTUCKY

CITY           SKY/WX    TMP DP  RH WIND       PRES   REMARKS
LEXINGTON      SUNNY     72  59  63 S9        30.07S
COVINGTON      MOSUNNY   71  59  65 S8        30.04S
FRANKFORT      SUNNY     69  59  70 S5        30.05R
$$

KYZ054-064>069-076>088-106>120-021500-
SOUTHEAST KENTUCKY

CITY           SKY/WX    TMP DP  RH WIND       PRES   REMARKS
JACKSON        MOSUNNY   66  57  72 S3        30.12R
LONDON         SUNNY     65  59  81 SE3       30.12R
SOMERSET       SUNNY     66  57  72 S3        30.11R
MIDDLESBORO    CLOUDY    55  55 100 CALM      30.16R FOG
MONTICELLO     SUNNY     73  60  63 S3        30.11R
$$




USA.gov is the U.S. government's official web portal to all federal, state and local government web resources and services.